M I D A S
Marine Information and Data Acquisition System
Tripno 1078 of the Zeeleeuw from 2006-04-28 07:14:02 to 2006-04-28 11:53:19
Back to CruiseResearch ActivitiesStationsMapUnderway DataData graphs

EquipmentUnitsComments
TimeDGPSUTC
LatitudeDGPSDM.mWGS84
LongitudeDGPSDM.mWGS84
SpeedMeteo Stationm/sRelative wind speed
DirectionMeteo StationdegRelative wind direction
TemperatureMeteo Stationdeg CelciusAir temperature
PressureMeteo StationPaAtmospheric pressure
HumidityMeteo Station%Relative humidity
Missing or incorrect values are displayed as -999
Metereological data collected by the RV Zeeleeuw from 2006-04-28 07:14:48 to 2006-04-28 12:05:21
                                                                                    Next 1000 lines
Time Latitude Longitude Speed Direction Temperature Pressure Humidity
2006-04-28 07:14:58 51°13.603 2°56.096 -999 226 8 102480 93
2006-04-28 07:15:03 51°13.604 2°56.093 -999 231 8 102480 93
2006-04-28 07:15:08 51°13.604 2°56.089 -999 222 8 102480 93
2006-04-28 07:15:13 51°13.605 2°56.084 -999 230 8 102470 93
2006-04-28 07:15:18 51°13.607 2°56.079 -999 223 8 102470 93
2006-04-28 07:15:23 51°13.608 2°56.073 -999 228 7.9 102480 93
2006-04-28 07:15:28 51°13.61 2°56.067 -999 228 7.9 102480 93
2006-04-28 07:15:33 51°13.612 2°56.06 -999 228 7.9 102480 93
2006-04-28 07:15:38 51°13.614 2°56.053 -999 224 7.9 102480 93
2006-04-28 07:15:42 51°13.616 2°56.047 -999 207 7.9 102480 93
2006-04-28 07:15:48 51°13.619 2°56.038 -999 213 7.9 102480 93
2006-04-28 07:15:53 51°13.622 2°56.03 -999 212 7.9 102480 93
2006-04-28 07:15:58 51°13.624 2°56.023 -999 220 7.9 102480 93
2006-04-28 07:16:02 51°13.625 2°56.016 -999 206 7.9 102480 93
2006-04-28 07:16:08 51°13.628 2°56.007 -999 209 7.9 102480 93
2006-04-28 07:16:13 51°13.629 2°55.998 -999 225 7.9 102480 93
2006-04-28 07:16:18 51°13.631 2°55.988 -999 223 7.9 102480 93
2006-04-28 07:16:23 51°13.633 2°55.978 -999 227 7.8 102480 93
2006-04-28 07:16:28 51°13.635 2°55.969 -999 218 7.8 102480 93
2006-04-28 07:16:33 51°13.637 2°55.96 -999 230 7.8 102490 93
2006-04-28 07:16:38 51°13.639 2°55.951 -999 224 7.8 102490 93
2006-04-28 07:16:43 51°13.642 2°55.943 -999 225 7.8 102480 93
2006-04-28 07:16:48 51°13.642 2°55.935 -999 225 7.8 102480 93
2006-04-28 07:16:53 51°13.644 2°55.926 -999 234 7.7 102490 93
2006-04-28 07:16:58 51°13.645 2°55.918 -999 208 7.7 102490 93
2006-04-28 07:17:03 51°13.647 2°55.91 -999 209 7.7 102490 93
2006-04-28 07:17:08 51°13.65 2°55.902 -999 214 7.7 102490 93
2006-04-28 07:17:13 51°13.652 2°55.894 -999 209 7.7 102480 93
2006-04-28 07:17:18 51°13.654 2°55.887 -999 223 7.7 102480 93
2006-04-28 07:17:23 51°13.657 2°55.879 -999 212 7.7 102480 93
2006-04-28 07:17:28 51°13.659 2°55.872 -999 212 7.7 102480 93
2006-04-28 07:17:33 51°13.662 2°55.865 -999 208 7.6 102480 93
2006-04-28 07:17:38 51°13.665 2°55.857 -999 203 7.6 102480 93
2006-04-28 07:17:42 51°13.667 2°55.852 -999 213 7.5 102490 93
2006-04-28 07:17:48 51°13.671 2°55.843 -999 210 7.5 102490 93
2006-04-28 07:17:53 51°13.674 2°55.835 -999 211 7.5 102490 93
2006-04-28 07:17:58 51°13.678 2°55.827 -999 226 7.5 102490 93
2006-04-28 07:18:02 51°13.681 2°55.821 -999 225 7.5 102490 93
2006-04-28 07:18:08 51°13.685 2°55.811 -999 220 7.5 102490 93
2006-04-28 07:18:13 51°13.689 2°55.803 -999 226 7.4 102490 93
2006-04-28 07:18:18 51°13.692 2°55.796 -999 227 7.4 102490 93
2006-04-28 07:18:22 51°13.694 2°55.79 -999 235 7.4 102490 93
2006-04-28 07:18:28 51°13.698 2°55.782 -999 214 7.4 102490 93
2006-04-28 07:18:33 51°13.7 2°55.776 -999 227 7.4 102490 93
2006-04-28 07:18:38 51°13.703 2°55.769 -999 227 7.4 102490 93
2006-04-28 07:18:42 51°13.704 2°55.764 -999 239 7.4 102490 94
2006-04-28 07:18:45 51°13.706 2°55.761 -999 228 7.4 102490 94
2006-04-28 07:18:52 51°13.709 2°55.752 -999 226 7.4 102490 94
2006-04-28 07:18:57 51°13.711 2°55.747 -999 225 7.4 102490 94
2006-04-28 07:19:01 51°13.712 2°55.743 -999 226 7.3 102480 94
2006-04-28 07:19:06 51°13.713 2°55.738 -999 239 7.3 102480 94
2006-04-28 07:19:12 51°13.714 2°55.733 -999 251 7.3 102490 94
2006-04-28 07:19:18 51°13.715 2°55.732 -999 265 7.3 102490 94
2006-04-28 07:19:22 51°13.715 2°55.732 -999 249 7.3 102490 94
2006-04-28 07:19:28 51°13.715 2°55.735 -999 275 7.3 102490 94
2006-04-28 07:19:33 51°13.717 2°55.739 -999 285 7.3 102490 94
2006-04-28 07:19:38 51°13.718 2°55.743 -999 300 7.3 102490 94
2006-04-28 07:19:42 51°13.72 2°55.747 -999 289 7.3 102480 94
2006-04-28 07:19:48 51°13.72 2°55.752 -999 41 7.3 102480 94
2006-04-28 07:19:53 51°13.72 2°55.755 -999 303 7.2 102490 94
2006-04-28 07:19:57 51°13.721 2°55.757 -999 300 7.2 102490 94
2006-04-28 07:20:02 51°13.721 2°55.759 -999 42 7.2 102480 95
2006-04-28 07:20:08 51°13.722 2°55.76 -999 308 7.2 102480 95
2006-04-28 07:20:13 51°13.722 2°55.759 -999 314 7.2 102480 95
2006-04-28 07:20:18 51°13.721 2°55.758 -999 270 7.2 102480 95
2006-04-28 07:20:23 51°13.719 2°55.756 -999 276 7.2 102480 95
2006-04-28 07:20:28 51°13.718 2°55.753 -999 286 7.2 102480 95
2006-04-28 07:20:33 51°13.717 2°55.752 -999 287 7.2 102480 95
2006-04-28 07:20:38 51°13.716 2°55.749 -999 295 7.2 102480 95
2006-04-28 07:20:42 51°13.714 2°55.746 -999 297 7.2 102480 95
2006-04-28 07:20:48 51°13.712 2°55.743 -999 291 7.2 102480 95
2006-04-28 07:20:53 51°13.71 2°55.741 -999 290 7.2 102480 95
2006-04-28 07:20:58 51°13.709 2°55.739 -999 283 7.2 102480 95
2006-04-28 07:21:03 51°13.708 2°55.738 -999 310 7.2 102480 95
2006-04-28 07:21:08 51°13.708 2°55.737 -999 295 7.2 102480 95
2006-04-28 07:21:13 51°13.709 2°55.737 -999 309 7.2 102480 95
2006-04-28 07:21:18 51°13.711 2°55.738 -999 334 7.2 102480 95
2006-04-28 07:21:22 51°13.712 2°55.738 -999 345 7.2 102480 95
2006-04-28 07:21:28 51°13.715 2°55.74 -999 355 7.2 102480 95
2006-04-28 07:21:33 51°13.718 2°55.741 -999 357 7.2 102480 95
2006-04-28 07:21:38 51°13.721 2°55.74 -999 360 7.2 102480 95
2006-04-28 07:21:42 51°13.725 2°55.739 -999 18 7.2 102480 95
2006-04-28 07:21:47 51°13.729 2°55.736 -999 12 7.2 102480 95
2006-04-28 07:21:53 51°13.736 2°55.731 -999 26 7.2 102470 95
2006-04-28 07:21:58 51°13.741 2°55.725 -999 26 7.2 102470 95
2006-04-28 07:22:02 51°13.746 2°55.72 -999 20 7.2 102470 95
2006-04-28 07:22:08 51°13.755 2°55.712 -999 21 7.2 102470 95
2006-04-28 07:22:12 51°13.761 2°55.705 -999 28 7.2 102470 96
2006-04-28 07:22:16 51°13.767 2°55.699 -999 22 7.2 102470 96
2006-04-28 07:22:22 51°13.777 2°55.688 -999 24 7.2 102470 96
2006-04-28 07:22:27 51°13.786 2°55.679 -999 26 7.2 102470 96
2006-04-28 07:22:33 51°13.799 2°55.669 -999 40 7.2 102470 96
2006-04-28 07:22:38 51°13.81 2°55.661 -999 15 7.2 102470 96
2006-04-28 07:22:42 51°13.818 2°55.653 -999 16 7.1 102470 96
2006-04-28 07:22:48 51°13.83 2°55.64 -999 31 7.1 102470 96
2006-04-28 07:22:53 51°13.841 2°55.63 -999 23 7.1 102470 96
2006-04-28 07:22:57 51°13.851 2°55.623 -999 20 7.1 102470 96
2006-04-28 07:23:02 51°13.86 2°55.611 -999 19 7.2 102470 96
2006-04-28 07:23:07 51°13.874 2°55.603 -999 29 7.2 102470 96
2006-04-28 07:23:12 51°13.886 2°55.594 -999 25 7.2 102470 96
2006-04-28 07:23:18 51°13.901 2°55.583 -999 31 7.2 102470 96
2006-04-28 07:23:22 51°13.911 2°55.575 -999 27 7.2 102470 96
2006-04-28 07:23:26 51°13.92 2°55.567 -999 27 7.2 102470 96
2006-04-28 07:23:33 51°13.938 2°55.554 -999 18 7.2 102460 96
2006-04-28 07:23:37 51°13.948 2°55.547 -999 20 7.2 102460 96
2006-04-28 07:23:42 51°13.961 2°55.538 -999 22 7.2 102470 96
2006-04-28 07:23:48 51°13.976 2°55.527 -999 17 7.2 102470 96
2006-04-28 07:23:52 51°13.985 2°55.519 -999 22 7.1 102460 96
2006-04-28 07:23:58 51°14 2°55.509 -999 12 7.1 102460 96
2006-04-28 07:24:02 51°14.01 2°55.502 -999 12 7.1 102470 96
2006-04-28 07:24:08 51°14.024 2°55.492 -999 12 7.1 102470 96
2006-04-28 07:24:13 51°14.035 2°55.483 -999 12 7.1 102470 96
2006-04-28 07:24:18 51°14.047 2°55.474 -999 20 7.1 102470 96
2006-04-28 07:24:22 51°14.057 2°55.469 -999 20 7.1 102460 96
2006-04-28 07:24:26 51°14.067 2°55.463 -999 19 7.1 102460 96
2006-04-28 07:24:31 51°14.079 2°55.454 -999 19 7.1 102460 96
2006-04-28 07:24:38 51°14.095 2°55.442 -999 20 7.1 102460 96
2006-04-28 07:24:42 51°14.105 2°55.435 -999 8 7.1 102470 96
2006-04-28 07:24:48 51°14.119 2°55.425 -999 16 7.1 102470 96
2006-04-28 07:24:52 51°14.129 2°55.417 -999 16 7.1 102480 96
2006-04-28 07:24:58 51°14.144 2°55.405 -999 23 7.1 102480 96
2006-04-28 07:25:02 51°14.153 2°55.397 -999 27 7 102480 96
2006-04-28 07:25:08 51°14.168 2°55.383 -999 32 7 102480 96
2006-04-28 07:25:12 51°14.177 2°55.373 -999 29 7 102480 97
2006-04-28 07:25:17 51°14.189 2°55.36 -999 25 7 102480 97
2006-04-28 07:25:22 51°14.201 2°55.347 -999 27 7 102480 97
2006-04-28 07:25:28 51°14.215 2°55.328 -999 30 7 102480 97
2006-04-28 07:25:33 51°14.226 2°55.312 -999 29 7 102470 97
2006-04-28 07:25:38 51°14.238 2°55.295 -999 27 7 102470 97
2006-04-28 07:25:43 51°14.248 2°55.276 -999 26 7.1 102470 97
2006-04-28 07:25:48 51°14.258 2°55.258 -999 40 7.1 102470 97
2006-04-28 07:25:53 51°14.269 2°55.239 -999 37 7.1 102470 97
2006-04-28 07:25:58 51°14.279 2°55.22 -999 38 7.1 102470 97
2006-04-28 07:26:02 51°14.287 2°55.204 -999 29 7.1 102480 97
2006-04-28 07:26:08 51°14.299 2°55.18 -999 42 7.1 102480 97
2006-04-28 07:26:13 51°14.308 2°55.16 -999 23 7.1 102480 97
2006-04-28 07:26:18 51°14.318 2°55.14 -999 22 7.1 102480 97
2006-04-28 07:26:23 51°14.328 2°55.119 -999 19 7 102470 97
2006-04-28 07:26:26 51°14.333 2°55.108 -999 42 7 102470 97
2006-04-28 07:26:30 51°14.341 2°55.092 -999 49 7 102480 97
2006-04-28 07:26:37 51°14.354 2°55.062 -999 52 7 102480 97
2006-04-28 07:26:42 51°14.361 2°55.041 -999 53 7 102470 97
2006-04-28 07:26:47 51°14.368 2°55.019 -999 60 7 102470 97
2006-04-28 07:26:52 51°14.374 2°54.995 -999 60 7 102480 97
2006-04-28 07:26:57 51°14.379 2°54.97 -999 52 7 102480 97
2006-04-28 07:27:01 51°14.382 2°54.949 -999 54 6.9 102470 97
2006-04-28 07:27:05 51°14.385 2°54.928 -999 52 6.9 102470 97
2006-04-28 07:27:12 51°14.389 2°54.89 -999 55 6.9 102470 97
2006-04-28 07:27:17 51°14.392 2°54.863 -999 52 6.9 102470 97
2006-04-28 07:27:22 51°14.395 2°54.834 -999 50 6.9 102470 97
2006-04-28 07:27:25 51°14.396 2°54.817 -999 50 6.9 102470 97
2006-04-28 07:27:32 51°14.399 2°54.777 -999 54 6.9 102470 97
2006-04-28 07:27:37 51°14.402 2°54.748 -999 48 6.9 102470 97
2006-04-28 07:27:41 51°14.405 2°54.725 -999 50 6.9 102470 97
2006-04-28 07:27:46 51°14.408 2°54.696 -999 54 6.9 102470 97
2006-04-28 07:27:52 51°14.412 2°54.661 -999 51 6.8 102460 97
2006-04-28 07:27:56 51°14.416 2°54.638 -999 54 6.8 102460 97
2006-04-28 07:28:02 51°14.42 2°54.603 -999 52 6.8 102470 98
2006-04-28 07:28:05 51°14.421 2°54.585 -999 57 6.8 102470 98
2006-04-28 07:28:11 51°14.423 2°54.549 -999 56 6.8 102460 98
2006-04-28 07:28:18 51°14.421 2°54.507 -999 58 6.8 102460 98
2006-04-28 07:28:22 51°14.418 2°54.484 -999 65 6.8 102460 98
2006-04-28 07:28:26 51°14.415 2°54.46 -999 68 6.8 102460 98
2006-04-28 07:28:32 51°14.409 2°54.426 -999 79 6.9 102470 98
2006-04-28 07:28:38 51°14.402 2°54.392 -999 63 6.9 102470 98
2006-04-28 07:28:42 51°14.396 2°54.369 -999 68 6.9 102470 98
2006-04-28 07:28:45 51°14.391 2°54.353 -999 76 6.9 102470 98
2006-04-28 07:28:52 51°14.378 2°54.317 -999 79 6.9 102470 98
2006-04-28 07:28:56 51°14.37 2°54.297 -999 77 6.9 102470 98
2006-04-28 07:29:01 51°14.359 2°54.272 -999 71 6.9 102470 98
2006-04-28 07:29:07 51°14.345 2°54.242 -999 76 6.9 102470 98
2006-04-28 07:29:12 51°14.334 2°54.218 -999 76 6.9 102470 98
2006-04-28 07:29:17 51°14.323 2°54.193 -999 79 6.9 102470 98
2006-04-28 07:29:21 51°14.315 2°54.173 -999 70 6.9 102470 98
2006-04-28 07:29:25 51°14.306 2°54.152 -999 75 6.9 102470 98
2006-04-28 07:29:31 51°14.296 2°54.119 -999 77 6.9 102480 98
2006-04-28 07:29:38 51°14.284 2°54.081 -999 67 6.9 102480 98
2006-04-28 07:29:42 51°14.278 2°54.059 -999 74 6.9 102470 98
2006-04-28 07:29:48 51°14.269 2°54.025 -999 66 6.9 102470 98
2006-04-28 07:29:52 51°14.263 2°54.003 -999 67 6.9 102470 98
2006-04-28 07:29:57 51°14.255 2°53.975 -999 72 6.9 102470 98
2006-04-28 07:30:02 51°14.247 2°53.948 -999 67 6.9 102460 98
2006-04-28 07:30:06 51°14.241 2°53.926 -999 65 6.9 102460 98
2006-04-28 07:30:12 51°14.23 2°53.893 -999 62 6.9 102460 98
2006-04-28 07:30:17 51°14.22 2°53.866 -999 62 6.9 102460 98
2006-04-28 07:30:22 51°14.211 2°53.839 -999 64 6.8 102470 98
2006-04-28 07:30:26 51°14.203 2°53.817 -999 61 6.8 102470 98
2006-04-28 07:30:32 51°14.193 2°53.784 -999 65 6.9 102470 99
2006-04-28 07:30:37 51°14.184 2°53.757 -999 56 6.9 102470 99
2006-04-28 07:30:41 51°14.178 2°53.735 -999 58 6.8 102460 99
2006-04-28 07:30:47 51°14.169 2°53.7 -999 55 6.8 102460 99
2006-04-28 07:30:51 51°14.163 2°53.677 -999 55 6.8 102460 98
2006-04-28 07:30:58 51°14.152 2°53.638 -999 55 6.8 102460 98
2006-04-28 07:31:02 51°14.146 2°53.615 -999 56 6.8 102470 99
2006-04-28 07:31:08 51°14.137 2°53.581 -999 52 6.8 102470 99
2006-04-28 07:31:12 51°14.131 2°53.558 -999 56 6.8 102470 99
2006-04-28 07:31:16 51°14.124 2°53.535 -999 55 6.8 102470 99
2006-04-28 07:31:22 51°14.115 2°53.501 -999 60 6.7 102460 99
2006-04-28 07:31:25 51°14.109 2°53.484 -999 49 6.7 102460 99
2006-04-28 07:31:32 51°14.097 2°53.445 -999 48 6.7 102460 99
2006-04-28 07:31:37 51°14.088 2°53.417 -999 52 6.7 102460 99
2006-04-28 07:31:41 51°14.08 2°53.395 -999 56 6.7 102460 99
2006-04-28 07:31:45 51°14.072 2°53.373 -999 58 6.7 102460 99
2006-04-28 07:31:52 51°14.059 2°53.334 -999 58 6.7 102460 99
2006-04-28 07:31:57 51°14.049 2°53.307 -999 55 6.7 102460 99
2006-04-28 07:32:01 51°14.042 2°53.284 -999 58 6.7 102470 99
2006-04-28 07:32:05 51°14.034 2°53.262 -999 63 6.7 102470 99
2006-04-28 07:32:11 51°14.023 2°53.228 -999 50 6.7 102460 99
2006-04-28 07:32:17 51°14.013 2°53.194 -999 54 6.7 102460 99
2006-04-28 07:32:22 51°14.004 2°53.165 -999 57 6.7 102460 99
2006-04-28 07:32:25 51°13.999 2°53.148 -999 54 6.7 102460 99
2006-04-28 07:32:32 51°13.987 2°53.108 -999 57 6.7 102470 99
2006-04-28 07:32:38 51°13.977 2°53.073 -999 53 6.7 102470 99
2006-04-28 07:32:42 51°13.97 2°53.05 -999 58 6.6 102460 99
2006-04-28 07:32:46 51°13.962 2°53.028 -999 59 6.6 102460 99
2006-04-28 07:32:52 51°13.951 2°52.993 -999 57 6.6 102460 99
2006-04-28 07:32:57 51°13.941 2°52.965 -999 53 6.6 102460 99
2006-04-28 07:33:01 51°13.933 2°52.943 -999 49 6.6 102460 99
2006-04-28 07:33:07 51°13.921 2°52.909 -999 57 6.6 102460 99
2006-04-28 07:33:11 51°13.913 2°52.887 -999 56 6.6 102460 99
2006-04-28 07:33:17 51°13.9 2°52.853 -999 52 6.6 102460 99
2006-04-28 07:33:22 51°13.89 2°52.825 -999 50 6.6 102470 99
2006-04-28 07:33:27 51°13.88 2°52.797 -999 64 6.6 102470 99
2006-04-28 07:33:31 51°13.872 2°52.774 -999 59 6.6 102460 99
2006-04-28 07:33:38 51°13.859 2°52.734 -999 49 6.6 102460 99
2006-04-28 07:33:42 51°13.852 2°52.711 -999 60 6.6 102460 99
2006-04-28 07:33:47 51°13.842 2°52.682 -999 63 6.6 102460 99
2006-04-28 07:33:52 51°13.833 2°52.653 -999 63 6.6 102470 99
2006-04-28 07:33:57 51°13.823 2°52.625 -999 68 6.6 102470 99
2006-04-28 07:34:01 51°13.815 2°52.602 -999 59 6.6 102470 99
2006-04-28 07:34:07 51°13.802 2°52.569 -999 59 6.6 102470 99
2006-04-28 07:34:12 51°13.79 2°52.543 -999 64 6.6 102470 99
2006-04-28 07:34:17 51°13.778 2°52.517 -999 66 6.6 102470 99
2006-04-28 07:34:21 51°13.768 2°52.496 -999 77 6.6 102470 99
2006-04-28 07:34:28 51°13.75 2°52.461 -999 78 6.6 102470 99
2006-04-28 07:34:32 51°13.74 2°52.44 -999 85 6.7 102470 99
2006-04-28 07:34:37 51°13.726 2°52.416 -999 61 6.7 102470 99
2006-04-28 07:34:42 51°13.713 2°52.391 -999 63 6.6 102470 99
2006-04-28 07:34:45 51°13.705 2°52.376 -999 63 6.6 102470 99
2006-04-28 07:34:51 51°13.69 2°52.345 -999 65 6.7 102470 99
2006-04-28 07:34:57 51°13.675 2°52.314 -999 66 6.7 102470 99
2006-04-28 07:35:02 51°13.664 2°52.287 -999 66 6.7 102470 99
2006-04-28 07:35:07 51°13.653 2°52.259 -999 38 6.7 102470 99
2006-04-28 07:35:12 51°13.643 2°52.231 -999 39 6.7 102470 99
2006-04-28 07:35:18 51°13.631 2°52.197 -999 43 6.7 102470 99
2006-04-28 07:35:22 51°13.623 2°52.174 -999 42 6.7 102470 99
2006-04-28 07:35:27 51°13.614 2°52.144 -999 44 6.7 102470 99
2006-04-28 07:35:32 51°13.605 2°52.116 -999 45 6.8 102460 100
2006-04-28 07:35:37 51°13.595 2°52.086 -999 44 6.8 102460 100
2006-04-28 07:35:41 51°13.588 2°52.063 -999 42 6.8 102470 100
2006-04-28 07:35:47 51°13.577 2°52.028 -999 38 6.8 102470 100
2006-04-28 07:35:49 51°13.573 2°52.016 -999 40 6.7 102460 100
2006-04-28 07:35:57 51°13.558 2°51.97 -999 36 6.7 102460 100
2006-04-28 07:36:01 51°13.55 2°51.947 -999 38 6.7 102460 100
2006-04-28 07:36:06 51°13.54 2°51.918 -999 70 6.7 102460 100
2006-04-28 07:36:11 51°13.53 2°51.89 -999 74 6.8 102470 100
2006-04-28 07:36:17 51°13.518 2°51.856 -999 66 6.8 102470 100
2006-04-28 07:36:22 51°13.508 2°51.827 -999 66 6.8 102460 100
2006-04-28 07:36:27 51°13.498 2°51.798 -999 60 6.8 102460 100
2006-04-28 07:36:32 51°13.488 2°51.769 -999 67 6.9 102460 100
2006-04-28 07:36:37 51°13.479 2°51.739 -999 57 6.9 102460 100
2006-04-28 07:36:41 51°13.472 2°51.716 -999 55 6.9 102450 100
2006-04-28 07:36:47 51°13.46 2°51.679 -999 60 6.9 102450 100
2006-04-28 07:36:52 51°13.451 2°51.651 -999 50 6.8 102460 100
2006-04-28 07:36:57 51°13.442 2°51.621 -999 56 6.8 102460 100
2006-04-28 07:37:02 51°13.433 2°51.592 -999 55 6.8 102450 100
2006-04-28 07:37:07 51°13.424 2°51.562 -999 62 6.8 102450 100
2006-04-28 07:37:12 51°13.415 2°51.533 -999 57 6.8 102460 100
2006-04-28 07:37:17 51°13.405 2°51.503 -999 53 6.8 102460 100
2006-04-28 07:37:22 51°13.396 2°51.474 -999 58 6.7 102450 100
2006-04-28 07:37:27 51°13.387 2°51.445 -999 45 6.7 102450 100
2006-04-28 07:37:32 51°13.377 2°51.415 -999 49 6.7 102460 100
2006-04-28 07:37:37 51°13.367 2°51.387 -999 50 6.7 102460 100
2006-04-28 07:37:42 51°13.358 2°51.357 -999 49 6.6 102460 100
2006-04-28 07:37:47 51°13.349 2°51.328 -999 45 6.6 102460 100
2006-04-28 07:37:52 51°13.339 2°51.298 -999 52 6.7 102460 100
2006-04-28 07:37:57 51°13.329 2°51.269 -999 56 6.7 102460 100
2006-04-28 07:38:02 51°13.32 2°51.24 -999 54 6.6 102460 100
2006-04-28 07:38:06 51°13.312 2°51.217 -999 52 6.6 102460 100
2006-04-28 07:38:12 51°13.3 2°51.182 -999 51 6.6 102460 100
2006-04-28 07:38:17 51°13.291 2°51.153 -999 50 6.6 102460 100
2006-04-28 07:38:22 51°13.281 2°51.123 -999 51 6.6 102450 100
2006-04-28 07:38:26 51°13.274 2°51.1 -999 51 6.6 102450 100
2006-04-28 07:38:32 51°13.262 2°51.065 -999 48 6.6 102460 100
2006-04-28 07:38:37 51°13.252 2°51.036 -999 45 6.6 102460 100
2006-04-28 07:38:41 51°13.244 2°51.013 -999 49 6.6 102460 100
2006-04-28 07:38:47 51°13.231 2°50.979 -999 47 6.6 102460 100
2006-04-28 07:38:52 51°13.22 2°50.951 -999 47 6.6 102450 100
2006-04-28 07:38:56 51°13.211 2°50.929 -999 50 6.6 102450 100
2006-04-28 07:39:02 51°13.197 2°50.896 -999 47 6.6 102460 100
2006-04-28 07:39:07 51°13.186 2°50.868 -999 45 6.6 102460 100
2006-04-28 07:39:12 51°13.174 2°50.841 -999 42 6.6 102460 100
2006-04-28 07:39:17 51°13.163 2°50.813 -999 44 6.6 102460 100
2006-04-28 07:39:22 51°13.152 2°50.785 -999 43 6.6 102460 100
2006-04-28 07:39:27 51°13.142 2°50.756 -999 52 6.6 102460 100
2006-04-28 07:39:32 51°13.131 2°50.728 -999 49 6.5 102460 100
2006-04-28 07:39:37 51°13.122 2°50.699 -999 43 6.5 102460 100
2006-04-28 07:39:42 51°13.112 2°50.67 -999 42 6.5 102460 100
2006-04-28 07:39:47 51°13.102 2°50.641 -999 42 6.5 102460 100
2006-04-28 07:39:52 51°13.092 2°50.613 -999 41 6.5 102460 100
2006-04-28 07:39:57 51°13.083 2°50.583 -999 49 6.5 102460 100
2006-04-28 07:40:02 51°13.073 2°50.554 -999 51 6.5 102460 100
2006-04-28 07:40:07 51°13.063 2°50.525 -999 54 6.5 102460 100
2006-04-28 07:40:12 51°13.053 2°50.497 -999 46 6.4 102460 100
2006-04-28 07:40:17 51°13.043 2°50.469 -999 56 6.4 102460 100
2006-04-28 07:40:22 51°13.033 2°50.44 -999 56 6.4 102460 100
2006-04-28 07:40:27 51°13.023 2°50.411 -999 55 6.4 102460 100
2006-04-28 07:40:32 51°13.013 2°50.382 -999 59 6.4 102460 100
2006-04-28 07:40:37 51°13.003 2°50.353 -999 57 6.4 102460 100
2006-04-28 07:40:42 51°12.993 2°50.324 -999 56 6.5 102460 100
2006-04-28 07:40:47 51°12.984 2°50.294 -999 50 6.5 102460 100
2006-04-28 07:40:52 51°12.974 2°50.266 -999 51 6.5 102460 100
2006-04-28 07:40:57 51°12.965 2°50.237 -999 53 6.5 102460 100
2006-04-28 07:41:02 51°12.955 2°50.208 -999 53 6.5 102460 100
2006-04-28 07:41:07 51°12.945 2°50.179 -999 59 6.5 102460 100
2006-04-28 07:41:12 51°12.935 2°50.151 -999 48 6.5 102460 100
2006-04-28 07:41:17 51°12.924 2°50.123 -999 56 6.5 102460 100
2006-04-28 07:41:22 51°12.913 2°50.096 -999 60 6.4 102450 100
2006-04-28 07:41:27 51°12.902 2°50.068 -999 60 6.4 102450 100
2006-04-28 07:41:32 51°12.891 2°50.042 -999 60 6.4 102460 100
2006-04-28 07:41:37 51°12.88 2°50.014 -999 54 6.4 102460 100
2006-04-28 07:41:42 51°12.869 2°49.986 -999 60 6.4 102450 100
2006-04-28 07:41:47 51°12.859 2°49.958 -999 56 6.4 102450 100
2006-04-28 07:41:52 51°12.848 2°49.93 -999 60 6.4 102460 100
2006-04-28 07:41:57 51°12.839 2°49.902 -999 61 6.4 102460 100
2006-04-28 07:42:02 51°12.829 2°49.873 -999 64 6.4 102460 100
2006-04-28 07:42:07 51°12.82 2°49.844 -999 59 6.4 102460 100
2006-04-28 07:42:12 51°12.81 2°49.816 -999 61 6.5 102460 100
2006-04-28 07:42:17 51°12.8 2°49.787 -999 64 6.5 102460 100
2006-04-28 07:42:22 51°12.79 2°49.759 -999 66 6.4 102460 100
2006-04-28 07:42:27 51°12.779 2°49.73 -999 63 6.4 102460 100
2006-04-28 07:42:32 51°12.769 2°49.703 -999 60 6.4 102460 100
2006-04-28 07:42:37 51°12.758 2°49.675 -999 64 6.4 102460 100
2006-04-28 07:42:42 51°12.747 2°49.648 -999 54 6.4 102460 100
2006-04-28 07:42:47 51°12.735 2°49.62 -999 64 6.4 102460 100
2006-04-28 07:42:52 51°12.724 2°49.592 -999 58 6.4 102460 100
2006-04-28 07:42:57 51°12.714 2°49.565 -999 56 6.4 102460 100
2006-04-28 07:43:02 51°12.703 2°49.536 -999 54 6.5 102460 100
2006-04-28 07:43:07 51°12.693 2°49.508 -999 61 6.5 102460 100
2006-04-28 07:43:12 51°12.684 2°49.479 -999 54 6.5 102460 100
2006-04-28 07:43:17 51°12.674 2°49.451 -999 50 6.5 102460 100
2006-04-28 07:43:22 51°12.664 2°49.422 -999 51 6.5 102460 100
2006-04-28 07:43:27 51°12.655 2°49.393 -999 44 6.5 102460 100
2006-04-28 07:43:32 51°12.645 2°49.364 -999 47 6.5 102450 100
2006-04-28 07:43:37 51°12.635 2°49.336 -999 54 6.5 102450 100
2006-04-28 07:43:42 51°12.626 2°49.307 -999 53 6.5 102450 100
2006-04-28 07:43:47 51°12.615 2°49.278 -999 53 6.5 102450 100
2006-04-28 07:43:52 51°12.606 2°49.25 -999 54 6.5 102450 100
2006-04-28 07:43:57 51°12.595 2°49.221 -999 53 6.5 102450 100
2006-04-28 07:44:02 51°12.585 2°49.193 -999 48 6.5 102450 100
2006-04-28 07:44:07 51°12.575 2°49.164 -999 52 6.5 102450 100
2006-04-28 07:44:12 51°12.565 2°49.135 -999 48 6.5 102460 100
2006-04-28 07:44:17 51°12.555 2°49.106 -999 52 6.5 102460 100
2006-04-28 07:44:22 51°12.545 2°49.077 -999 52 6.6 102450 100
2006-04-28 07:44:27 51°12.534 2°49.048 -999 45 6.6 102450 100
2006-04-28 07:44:32 51°12.525 2°49.019 -999 48 6.6 102450 100
2006-04-28 07:44:37 51°12.515 2°48.989 -999 46 6.6 102450 100
2006-04-28 07:44:42 51°12.505 2°48.96 -999 49 6.7 102440 100
2006-04-28 07:44:47 51°12.495 2°48.93 -999 45 6.7 102440 100
2006-04-28 07:44:52 51°12.486 2°48.9 -999 53 6.7 102450 100
2006-04-28 07:44:57 51°12.476 2°48.871 -999 50 6.7 102450 100
2006-04-28 07:45:02 51°12.465 2°48.842 -999 48 6.6 102450 100
2006-04-28 07:45:06 51°12.458 2°48.819 -999 54 6.6 102450 100
2006-04-28 07:45:12 51°12.446 2°48.783 -999 53 6.6 102440 100
2006-04-28 07:45:17 51°12.436 2°48.753 -999 55 6.6 102440 100
2006-04-28 07:45:22 51°12.426 2°48.723 -999 55 6.6 102440 100
2006-04-28 07:45:26 51°12.418 2°48.7 -999 58 6.6 102440 100
2006-04-28 07:45:32 51°12.406 2°48.664 -999 59 6.6 102450 100
2006-04-28 07:45:37 51°12.396 2°48.634 -999 56 6.6 102450 100
2006-04-28 07:45:42 51°12.386 2°48.605 -999 55 6.6 102440 100
2006-04-28 07:45:47 51°12.375 2°48.575 -999 56 6.6 102440 100
2006-04-28 07:45:52 51°12.365 2°48.546 -999 43 6.6 102450 100
2006-04-28 07:45:56 51°12.356 2°48.522 -999 54 6.6 102450 100
2006-04-28 07:46:02 51°12.344 2°48.487 -999 54 6.6 102450 100
2006-04-28 07:46:07 51°12.333 2°48.457 -999 54 6.6 102450 100
2006-04-28 07:46:12 51°12.323 2°48.428 -999 51 6.6 102450 100
2006-04-28 07:46:16 51°12.314 2°48.404 -999 48 6.6 102450 100
2006-04-28 07:46:22 51°12.302 2°48.369 -999 44 6.6 102450 100
2006-04-28 07:46:26 51°12.294 2°48.345 -999 51 6.6 102450 100
2006-04-28 07:46:32 51°12.282 2°48.309 -999 50 6.6 102450 100
2006-04-28 07:46:36 51°12.274 2°48.285 -999 51 6.6 102450 100
2006-04-28 07:46:42 51°12.262 2°48.25 -999 43 6.6 102450 100
2006-04-28 07:46:46 51°12.255 2°48.227 -999 41 6.6 102450 100
2006-04-28 07:46:51 51°12.245 2°48.197 -999 42 6.7 102450 100
2006-04-28 07:46:57 51°12.233 2°48.162 -999 41 6.7 102450 100
2006-04-28 07:47:02 51°12.223 2°48.132 -999 44 6.6 102440 100
2006-04-28 07:47:07 51°12.213 2°48.102 -999 40 6.6 102440 100
2006-04-28 07:47:12 51°12.204 2°48.073 -999 37 6.6 102450 100
2006-04-28 07:47:17 51°12.194 2°48.044 -999 42 6.6 102450 100
2006-04-28 07:47:21 51°12.186 2°48.021 -999 43 6.6 102450 100
2006-04-28 07:47:27 51°12.173 2°47.985 -999 41 6.6 102450 100
2006-04-28 07:47:32 51°12.163 2°47.957 -999 43 6.6 102450 100
2006-04-28 07:47:37 51°12.152 2°47.928 -999 39 6.6 102450 100
2006-04-28 07:47:42 51°12.142 2°47.9 -999 42 6.6 102460 100
2006-04-28 07:47:47 51°12.131 2°47.871 -999 43 6.6 102460 100
2006-04-28 07:47:52 51°12.12 2°47.843 -999 41 6.6 102450 100
2006-04-28 07:47:57 51°12.11 2°47.814 -999 42 6.6 102450 100
2006-04-28 07:48:01 51°12.102 2°47.791 -999 41 6.6 102450 100
2006-04-28 07:48:07 51°12.09 2°47.756 -999 47 6.6 102450 100
2006-04-28 07:48:12 51°12.08 2°47.727 -999 45 6.6 102450 100
2006-04-28 07:48:17 51°12.071 2°47.698 -999 44 6.6 102450 100
2006-04-28 07:48:22 51°12.061 2°47.669 -999 40 6.6 102450 100
2006-04-28 07:48:27 51°12.051 2°47.639 -999 38 6.6 102450 100
2006-04-28 07:48:32 51°12.041 2°47.609 -999 38 6.5 102450 100
2006-04-28 07:48:37 51°12.031 2°47.58 -999 42 6.5 102450 100
2006-04-28 07:48:41 51°12.023 2°47.557 -999 39 6.5 102460 100
2006-04-28 07:48:47 51°12.011 2°47.523 -999 44 6.5 102460 100
2006-04-28 07:48:52 51°12.001 2°47.495 -999 38 6.5 102450 100
2006-04-28 07:48:57 51°11.992 2°47.465 -999 37 6.5 102450 100
2006-04-28 07:49:02 51°11.982 2°47.436 -999 33 6.5 102450 100
2006-04-28 07:49:07 51°11.973 2°47.403 -999 32 6.5 102450 100
2006-04-28 07:49:12 51°11.964 2°47.373 -999 35 6.5 102460 100
2006-04-28 07:49:17 51°11.955 2°47.344 -999 41 6.5 102460 100
2006-04-28 07:49:21 51°11.948 2°47.32 -999 50 6.5 102460 100
2006-04-28 07:49:27 51°11.937 2°47.283 -999 51 6.5 102460 100
2006-04-28 07:49:32 51°11.928 2°47.255 -999 52 6.5 102460 100
2006-04-28 07:49:37 51°11.918 2°47.225 -999 45 6.5 102460 100
2006-04-28 07:49:42 51°11.909 2°47.195 -999 44 6.5 102450 100
2006-04-28 07:49:47 51°11.899 2°47.165 -999 49 6.5 102450 100
2006-04-28 07:49:52 51°11.889 2°47.135 -999 47 6.5 102450 100
2006-04-28 07:49:57 51°11.879 2°47.105 -999 46 6.5 102450 100
2006-04-28 07:50:01 51°11.871 2°47.082 -999 48 6.5 102450 100
2006-04-28 07:50:07 51°11.859 2°47.046 -999 43 6.5 102450 100
2006-04-28 07:50:12 51°11.85 2°47.016 -999 46 6.5 102450 100
2006-04-28 07:50:17 51°11.841 2°46.986 -999 44 6.5 102450 100
2006-04-28 07:50:22 51°11.832 2°46.957 -999 47 6.6 102450 100
2006-04-28 07:50:27 51°11.823 2°46.926 -999 54 6.6 102450 100
2006-04-28 07:50:32 51°11.814 2°46.894 -999 54 6.6 102450 100
2006-04-28 07:50:37 51°11.805 2°46.862 -999 56 6.6 102450 100
2006-04-28 07:50:41 51°11.797 2°46.838 -999 58 6.6 102450 100
2006-04-28 07:50:47 51°11.786 2°46.802 -999 54 6.6 102450 100
2006-04-28 07:50:52 51°11.778 2°46.771 -999 49 6.5 102450 100
2006-04-28 07:50:57 51°11.769 2°46.741 -999 51 6.5 102450 100
2006-04-28 07:51:02 51°11.76 2°46.712 -999 57 6.5 102450 100
2006-04-28 07:51:07 51°11.751 2°46.682 -999 50 6.5 102450 100
2006-04-28 07:51:12 51°11.742 2°46.652 -999 49 6.5 102450 100
2006-04-28 07:51:17 51°11.733 2°46.622 -999 50 6.5 102450 100
2006-04-28 07:51:21 51°11.725 2°46.598 -999 51 6.5 102450 100
2006-04-28 07:51:27 51°11.714 2°46.561 -999 46 6.5 102450 100
2006-04-28 07:51:32 51°11.705 2°46.532 -999 48 6.5 102460 100
2006-04-28 07:51:37 51°11.695 2°46.503 -999 38 6.5 102460 100
2006-04-28 07:51:42 51°11.686 2°46.473 -999 47 6.5 102460 100
2006-04-28 07:51:47 51°11.676 2°46.443 -999 40 6.5 102460 100
2006-04-28 07:51:52 51°11.667 2°46.412 -999 44 6.5 102460 100
2006-04-28 07:51:57 51°11.658 2°46.381 -999 40 6.5 102460 100
2006-04-28 07:52:01 51°11.65 2°46.357 -999 42 6.5 102460 100
2006-04-28 07:52:07 51°11.639 2°46.32 -999 35 6.5 102460 100
2006-04-28 07:52:12 51°11.63 2°46.29 -999 38 6.5 102460 100
2006-04-28 07:52:17 51°11.621 2°46.259 -999 35 6.5 102460 100
2006-04-28 07:52:22 51°11.612 2°46.229 -999 34 6.5 102460 100
2006-04-28 07:52:27 51°11.602 2°46.198 -999 52 6.5 102460 100
2006-04-28 07:52:32 51°11.593 2°46.169 -999 44 6.5 102460 100
2006-04-28 07:52:37 51°11.583 2°46.139 -999 51 6.5 102460 100
2006-04-28 07:52:41 51°11.576 2°46.115 -999 53 6.5 102460 100
2006-04-28 07:52:47 51°11.564 2°46.079 -999 52 6.5 102460 100
2006-04-28 07:52:52 51°11.555 2°46.05 -999 51 6.5 102460 100
2006-04-28 07:52:57 51°11.546 2°46.02 -999 51 6.5 102460 100
2006-04-28 07:53:02 51°11.537 2°45.99 -999 53 6.5 102450 100
2006-04-28 07:53:07 51°11.529 2°45.96 -999 55 6.5 102450 100
2006-04-28 07:53:12 51°11.52 2°45.93 -999 50 6.5 102450 100
2006-04-28 07:53:17 51°11.511 2°45.9 -999 48 6.5 102450 100
2006-04-28 07:53:21 51°11.504 2°45.876 -999 49 6.5 102450 100
2006-04-28 07:53:27 51°11.494 2°45.84 -999 49 6.5 102450 100
2006-04-28 07:53:32 51°11.485 2°45.81 -999 49 6.5 102460 100
2006-04-28 07:53:37 51°11.476 2°45.781 -999 45 6.5 102460 100
2006-04-28 07:53:42 51°11.467 2°45.75 -999 42 6.5 102450 100
2006-04-28 07:53:47 51°11.458 2°45.72 -999 43 6.5 102450 100
2006-04-28 07:53:52 51°11.45 2°45.691 -999 43 6.4 102450 100
2006-04-28 07:53:57 51°11.442 2°45.66 -999 50 6.4 102450 100
2006-04-28 07:54:01 51°11.436 2°45.636 -999 53 6.4 102450 100
2006-04-28 07:54:07 51°11.428 2°45.598 -999 54 6.4 102450 100
2006-04-28 07:54:12 51°11.421 2°45.567 -999 50 6.4 102450 100
2006-04-28 07:54:17 51°11.414 2°45.536 -999 49 6.4 102450 100
2006-04-28 07:54:22 51°11.408 2°45.505 -999 51 6.4 102440 100
2006-04-28 07:54:27 51°11.401 2°45.473 -999 45 6.4 102440 100
2006-04-28 07:54:32 51°11.394 2°45.44 -999 52 6.3 102450 100
2006-04-28 07:54:37 51°11.386 2°45.406 -999 52 6.3 102450 100
2006-04-28 07:54:41 51°11.381 2°45.383 -999 51 6.3 102450 100
2006-04-28 07:54:47 51°11.373 2°45.347 -999 55 6.3 102450 100
2006-04-28 07:54:52 51°11.367 2°45.317 -999 54 6.3 102460 100
2006-04-28 07:54:57 51°11.36 2°45.286 -999 54 6.3 102460 100
2006-04-28 07:55:02 51°11.353 2°45.256 -999 63 6.3 102450 100
2006-04-28 07:55:07 51°11.347 2°45.225 -999 56 6.3 102450 100
2006-04-28 07:55:12 51°11.34 2°45.193 -999 50 6.3 102460 100
2006-04-28 07:55:17 51°11.334 2°45.163 -999 58 6.3 102460 100
2006-04-28 07:55:21 51°11.329 2°45.138 -999 53 6.3 102460 100
2006-04-28 07:55:27 51°11.321 2°45.101 -999 51 6.3 102460 100
2006-04-28 07:55:32 51°11.314 2°45.07 -999 64 6.3 102460 100
2006-04-28 07:55:37 51°11.308 2°45.039 -999 64 6.3 102460 100
2006-04-28 07:55:42 51°11.301 2°45.007 -999 65 6.3 102460 100
2006-04-28 07:55:47 51°11.295 2°44.975 -999 58 6.3 102460 100
2006-04-28 07:55:52 51°11.289 2°44.944 -999 64 6.4 102460 100
2006-04-28 07:55:57 51°11.282 2°44.912 -999 63 6.4 102460 100
2006-04-28 07:56:01 51°11.275 2°44.881 -999 60 6.4 102460 100
2006-04-28 07:56:07 51°11.266 2°44.843 -999 54 6.4 102460 100
2006-04-28 07:56:12 51°11.26 2°44.815 -999 54 6.4 102450 100
2006-04-28 07:56:17 51°11.253 2°44.786 -999 51 6.4 102450 100
2006-04-28 07:56:21 51°11.247 2°44.762 -999 50 6.4 102450 100
2006-04-28 07:56:27 51°11.239 2°44.725 -999 55 6.4 102450 100
2006-04-28 07:56:29 51°11.236 2°44.713 -999 55 6.4 102460 100
2006-04-28 07:56:37 51°11.222 2°44.655 -999 53 6.4 102460 100
2006-04-28 07:56:41 51°11.217 2°44.631 -999 58 6.4 102450 100
2006-04-28 07:56:46 51°11.21 2°44.601 -999 58 6.4 102450 100
2006-04-28 07:56:51 51°11.205 2°44.57 -999 57 6.4 102460 100
2006-04-28 07:56:57 51°11.197 2°44.532 -999 56 6.4 102460 100
2006-04-28 07:57:02 51°11.192 2°44.5 -999 58 6.4 102460 100
2006-04-28 07:57:05 51°11.189 2°44.48 -999 59 6.4 102460 100
2006-04-28 07:57:12 51°11.182 2°44.435 -999 59 6.4 102460 100
2006-04-28 07:57:17 51°11.177 2°44.403 -999 57 6.4 102460 100
2006-04-28 07:57:22 51°11.171 2°44.371 -999 53 6.4 102460 100
2006-04-28 07:57:26 51°11.167 2°44.345 -999 54 6.4 102460 100
2006-04-28 07:57:32 51°11.161 2°44.306 -999 45 6.4 102450 100
2006-04-28 07:57:37 51°11.155 2°44.274 -999 44 6.4 102450 100
2006-04-28 07:57:42 51°11.15 2°44.242 -999 50 6.4 102460 100
2006-04-28 07:57:46 51°11.146 2°44.216 -999 50 6.4 102460 100
2006-04-28 07:57:52 51°11.14 2°44.178 -999 47 6.4 102460 100
2006-04-28 07:57:57 51°11.135 2°44.145 -999 48 6.4 102460 100
2006-04-28 07:58:02 51°11.13 2°44.112 -999 50 6.5 102450 100
2006-04-28 07:58:06 51°11.125 2°44.087 -999 53 6.5 102450 100
2006-04-28 07:58:12 51°11.118 2°44.048 -999 56 6.5 102450 100
2006-04-28 07:58:17 51°11.112 2°44.016 -999 57 6.5 102450 100
2006-04-28 07:58:22 51°11.106 2°43.984 -999 52 6.5 102450 100
2006-04-28 07:58:26 51°11.102 2°43.958 -999 41 6.5 102450 100
2006-04-28 07:58:31 51°11.095 2°43.926 -999 49 6.4 102440 100
2006-04-28 07:58:37 51°11.089 2°43.887 -999 48 6.4 102440 100
2006-04-28 07:58:42 51°11.083 2°43.855 -999 43 6.5 102440 100
2006-04-28 07:58:46 51°11.079 2°43.829 -999 42 6.5 102440 100
2006-04-28 07:58:52 51°11.072 2°43.791 -999 42 6.5 102450 100
2006-04-28 07:58:57 51°11.067 2°43.758 -999 41 6.5 102450 100
2006-04-28 07:59:02 51°11.061 2°43.726 -999 49 6.4 102440 100
2006-04-28 07:59:06 51°11.057 2°43.7 -999 44 6.4 102440 100
2006-04-28 07:59:12 51°11.05 2°43.662 -999 43 6.4 102450 100
2006-04-28 07:59:17 51°11.044 2°43.629 -999 49 6.4 102450 100
2006-04-28 07:59:22 51°11.039 2°43.597 -999 44 6.4 102450 100
2006-04-28 07:59:26 51°11.035 2°43.571 -999 44 6.4 102450 100
2006-04-28 07:59:31 51°11.03 2°43.538 -999 42 6.4 102450 100
2006-04-28 07:59:37 51°11.024 2°43.5 -999 43 6.4 102450 100
2006-04-28 07:59:42 51°11.018 2°43.468 -999 42 6.4 102450 100
2006-04-28 07:59:46 51°11.014 2°43.442 -999 40 6.4 102450 100
2006-04-28 07:59:52 51°11.007 2°43.403 -999 40 6.4 102450 100
2006-04-28 07:59:57 51°11.002 2°43.371 -999 42 6.4 102450 100
2006-04-28 08:00:02 51°10.996 2°43.338 -999 39 6.4 102450 100
2006-04-28 08:00:06 51°10.992 2°43.313 -999 48 6.4 102450 100
2006-04-28 08:00:12 51°10.985 2°43.274 -999 49 6.4 102460 100
2006-04-28 08:00:17 51°10.979 2°43.241 -999 49 6.4 102460 100
2006-04-28 08:00:22 51°10.974 2°43.21 -999 51 6.3 102450 100
2006-04-28 08:00:26 51°10.969 2°43.184 -999 48 6.3 102450 100
2006-04-28 08:00:32 51°10.963 2°43.145 -999 45 6.4 102460 100
2006-04-28 08:00:37 51°10.958 2°43.113 -999 46 6.4 102460 100
2006-04-28 08:00:41 51°10.954 2°43.087 -999 45 6.5 102450 100
2006-04-28 08:00:46 51°10.949 2°43.054 -999 53 6.5 102450 100
2006-04-28 08:00:52 51°10.943 2°43.016 -999 55 6.5 102450 100
2006-04-28 08:00:56 51°10.938 2°42.99 -999 48 6.5 102450 100
2006-04-28 08:01:02 51°10.931 2°42.952 -999 48 6.4 102450 100
2006-04-28 08:01:05 51°10.927 2°42.933 -999 53 6.4 102450 100
2006-04-28 08:01:11 51°10.92 2°42.895 -999 48 6.4 102450 100
2006-04-28 08:01:17 51°10.913 2°42.857 -999 49 6.4 102450 100
2006-04-28 08:01:22 51°10.907 2°42.825 -999 45 6.4 102440 100
2006-04-28 08:01:26 51°10.903 2°42.799 -999 48 6.4 102440 100
2006-04-28 08:01:31 51°10.897 2°42.767 -999 48 6.4 102450 100
2006-04-28 08:01:37 51°10.891 2°42.729 -999 40 6.4 102450 100
2006-04-28 08:01:42 51°10.886 2°42.696 -999 53 6.4 102450 100
2006-04-28 08:01:46 51°10.882 2°42.671 -999 47 6.4 102450 100
2006-04-28 08:01:52 51°10.876 2°42.632 -999 52 6.4 102450 100
2006-04-28 08:01:57 51°10.87 2°42.6 -999 43 6.4 102450 100
2006-04-28 08:02:02 51°10.864 2°42.568 -999 49 6.4 102440 100
2006-04-28 08:02:06 51°10.859 2°42.543 -999 52 6.4 102440 100
2006-04-28 08:02:12 51°10.852 2°42.504 -999 47 6.4 102440 100
2006-04-28 08:02:17 51°10.846 2°42.472 -999 43 6.4 102440 100
2006-04-28 08:02:22 51°10.839 2°42.441 -999 43 6.4 102440 100
2006-04-28 08:02:26 51°10.835 2°42.415 -999 40 6.4 102440 100
2006-04-28 08:02:31 51°10.829 2°42.383 -999 38 6.4 102440 100
2006-04-28 08:02:37 51°10.823 2°42.344 -999 37 6.4 102440 100
2006-04-28 08:02:42 51°10.818 2°42.312 -999 40 6.4 102440 100
2006-04-28 08:02:46 51°10.814 2°42.286 -999 40 6.4 102440 100
2006-04-28 08:02:52 51°10.808 2°42.248 -999 43 6.4 102440 100
2006-04-28 08:02:57 51°10.803 2°42.216 -999 43 6.4 102440 100
2006-04-28 08:03:02 51°10.798 2°42.185 -999 42 6.4 102440 100
2006-04-28 08:03:06 51°10.794 2°42.159 -999 43 6.4 102440 100
2006-04-28 08:03:12 51°10.787 2°42.121 -999 42 6.3 102440 100
2006-04-28 08:03:17 51°10.782 2°42.089 -999 36 6.3 102440 100
2006-04-28 08:03:22 51°10.776 2°42.057 -999 42 6.4 102440 100
2006-04-28 08:03:26 51°10.773 2°42.032 -999 40 6.4 102440 100
2006-04-28 08:03:32 51°10.766 2°41.994 -999 42 6.3 102440 100
2006-04-28 08:03:37 51°10.761 2°41.962 -999 43 6.3 102440 100
2006-04-28 08:03:41 51°10.757 2°41.936 -999 46 6.4 102440 100
2006-04-28 08:03:46 51°10.751 2°41.905 -999 45 6.4 102440 100
2006-04-28 08:03:52 51°10.745 2°41.866 -999 43 6.4 102440 100
2006-04-28 08:03:56 51°10.741 2°41.841 -999 48 6.4 102440 100
2006-04-28 08:04:02 51°10.734 2°41.804 -999 53 6.3 102450 100
2006-04-28 08:04:05 51°10.731 2°41.784 -999 45 6.3 102450 100
2006-04-28 08:04:11 51°10.725 2°41.746 -999 43 6.3 102440 100
2006-04-28 08:04:17 51°10.719 2°41.708 -999 51 6.3 102440 100
2006-04-28 08:04:22 51°10.714 2°41.676 -999 39 6.3 102440 100
2006-04-28 08:04:26 51°10.71 2°41.65 -999 49 6.3 102440 100
2006-04-28 08:04:31 51°10.705 2°41.618 -999 54 6.3 102440 100
2006-04-28 08:04:37 51°10.7 2°41.579 -999 56 6.3 102440 100
2006-04-28 08:04:42 51°10.694 2°41.548 -999 54 6.4 102440 100
2006-04-28 08:04:46 51°10.69 2°41.522 -999 48 6.4 102440 100
2006-04-28 08:04:52 51°10.684 2°41.484 -999 55 6.4 102440 100
2006-04-28 08:04:57 51°10.679 2°41.453 -999 53 6.4 102440 100
2006-04-28 08:05:02 51°10.675 2°41.421 -999 46 6.4 102430 100
2006-04-28 08:05:05 51°10.672 2°41.401 -999 50 6.4 102430 100
2006-04-28 08:05:12 51°10.665 2°41.357 -999 48 6.4 102430 100
2006-04-28 08:05:17 51°10.66 2°41.325 -999 50 6.4 102430 100
2006-04-28 08:05:21 51°10.656 2°41.3 -999 47 6.4 102440 100
2006-04-28 08:05:27 51°10.65 2°41.262 -999 43 6.4 102440 100
2006-04-28 08:05:32 51°10.644 2°41.231 -999 46 6.4 102440 100
2006-04-28 08:05:37 51°10.639 2°41.199 -999 47 6.4 102440 100
2006-04-28 08:05:42 51°10.633 2°41.168 -999 49 6.5 102440 100
2006-04-28 08:05:47 51°10.628 2°41.136 -999 40 6.5 102440 100
2006-04-28 08:05:52 51°10.623 2°41.105 -999 45 6.4 102440 100
2006-04-28 08:05:57 51°10.617 2°41.073 -999 52 6.4 102440 100
2006-04-28 08:06:01 51°10.613 2°41.048 -999 38 6.4 102440 100
2006-04-28 08:06:06 51°10.609 2°41.016 -999 42 6.4 102440 100
2006-04-28 08:06:11 51°10.603 2°40.984 -999 46 6.4 102440 100
2006-04-28 08:06:17 51°10.597 2°40.947 -999 43 6.4 102440 100
2006-04-28 08:06:22 51°10.591 2°40.916 -999 42 6.4 102440 100
2006-04-28 08:06:25 51°10.588 2°40.897 -999 42 6.4 102440 100
2006-04-28 08:06:32 51°10.58 2°40.853 -999 44 6.4 102440 100
2006-04-28 08:06:36 51°10.576 2°40.828 -999 48 6.4 102440 100
2006-04-28 08:06:42 51°10.57 2°40.791 -999 45 6.4 102440 100
2006-04-28 08:06:46 51°10.566 2°40.765 -999 41 6.4 102440 100
2006-04-28 08:06:52 51°10.56 2°40.728 -999 42 6.4 102440 100
2006-04-28 08:06:57 51°10.554 2°40.696 -999 36 6.4 102440 100
2006-04-28 08:07:01 51°10.551 2°40.671 -999 42 6.4 102440 100
2006-04-28 08:07:06 51°10.546 2°40.64 -999 39 6.4 102440 100
2006-04-28 08:07:11 51°10.54 2°40.608 -999 36 6.4 102440 100
2006-04-28 08:07:17 51°10.533 2°40.572 -999 39 6.4 102440 100
2006-04-28 08:07:22 51°10.528 2°40.541 -999 40 6.4 102440 100
2006-04-28 08:07:26 51°10.524 2°40.515 -999 35 6.4 102440 100
2006-04-28 08:07:32 51°10.518 2°40.478 -999 39 6.4 102440 100
2006-04-28 08:07:35 51°10.515 2°40.459 -999 40 6.4 102440 100
2006-04-28 08:07:42 51°10.507 2°40.417 -999 42 6.4 102440 100
2006-04-28 08:07:47 51°10.502 2°40.385 -999 40 6.4 102440 100
2006-04-28 08:07:52 51°10.496 2°40.354 -999 39 6.4 102450 100
2006-04-28 08:07:57 51°10.492 2°40.323 -999 45 6.4 102450 100
2006-04-28 08:08:02 51°10.487 2°40.29 -999 55 6.4 102440 100
2006-04-28 08:08:06 51°10.482 2°40.262 -999 42 6.4 102440 100
2006-04-28 08:08:11 51°10.477 2°40.23 -999 44 6.4 102440 100
2006-04-28 08:08:17 51°10.471 2°40.193 -999 42 6.4 102440 100
2006-04-28 08:08:22 51°10.467 2°40.162 -999 49 6.4 102440 100
2006-04-28 08:08:27 51°10.462 2°40.131 -999 42 6.4 102440 100
2006-04-28 08:08:31 51°10.458 2°40.105 -999 44 6.4 102440 100
2006-04-28 08:08:37 51°10.452 2°40.068 -999 35 6.4 102440 100
2006-04-28 08:08:41 51°10.448 2°40.042 -999 39 6.4 102440 100
2006-04-28 08:08:48 51°10.442 2°39.998 -999 37 6.4 102440 100
2006-04-28 08:08:52 51°10.437 2°39.973 -999 39 6.4 102440 100
2006-04-28 08:08:57 51°10.433 2°39.941 -999 42 6.4 102440 100
2006-04-28 08:09:02 51°10.427 2°39.909 -999 39 6.5 102440 100
2006-04-28 08:09:07 51°10.422 2°39.878 -999 42 6.5 102440 100
2006-04-28 08:09:12 51°10.417 2°39.847 -999 43 6.5 102440 100
2006-04-28 08:09:17 51°10.412 2°39.816 -999 39 6.5 102440 100
2006-04-28 08:09:22 51°10.407 2°39.784 -999 40 6.5 102440 100
2006-04-28 08:09:27 51°10.402 2°39.753 -999 41 6.5 102440 100
2006-04-28 08:09:32 51°10.397 2°39.722 -999 45 6.4 102440 100
2006-04-28 08:09:37 51°10.392 2°39.69 -999 43 6.4 102440 100
2006-04-28 08:09:42 51°10.387 2°39.659 -999 49 6.4 102440 100
2006-04-28 08:09:46 51°10.383 2°39.634 -999 43 6.4 102440 100
2006-04-28 08:09:51 51°10.378 2°39.603 -999 49 6.4 102440 100
2006-04-28 08:09:57 51°10.372 2°39.565 -999 40 6.4 102440 100
2006-04-28 08:10:01 51°10.368 2°39.54 -999 45 6.5 102440 100
2006-04-28 08:10:07 51°10.362 2°39.502 -999 40 6.5 102440 100
2006-04-28 08:10:12 51°10.357 2°39.471 -999 36 6.5 102440 100
2006-04-28 08:10:17 51°10.352 2°39.439 -999 40 6.5 102440 100
2006-04-28 08:10:21 51°10.347 2°39.414 -999 42 6.5 102440 100
2006-04-28 08:10:27 51°10.341 2°39.376 -999 40 6.5 102440 100
2006-04-28 08:10:32 51°10.336 2°39.345 -999 42 6.5 102440 100
2006-04-28 08:10:37 51°10.332 2°39.313 -999 44 6.5 102440 100
2006-04-28 08:10:42 51°10.327 2°39.281 -999 43 6.5 102440 100
2006-04-28 08:10:47 51°10.323 2°39.249 -999 36 6.5 102440 100
2006-04-28 08:10:52 51°10.318 2°39.218 -999 45 6.5 102440 100
2006-04-28 08:10:57 51°10.312 2°39.186 -999 38 6.5 102440 100
2006-04-28 08:11:01 51°10.308 2°39.161 -999 47 6.5 102440 100
2006-04-28 08:11:06 51°10.303 2°39.13 -999 47 6.5 102440 100
2006-04-28 08:11:11 51°10.298 2°39.098 -999 48 6.5 102440 100
2006-04-28 08:11:17 51°10.291 2°39.061 -999 49 6.5 102440 100
2006-04-28 08:11:21 51°10.287 2°39.036 -999 47 6.5 102440 100
2006-04-28 08:11:25 51°10.282 2°39.01 -999 51 6.5 102440 100
2006-04-28 08:11:32 51°10.275 2°38.966 -999 51 6.5 102440 100
2006-04-28 08:11:37 51°10.27 2°38.935 -999 53 6.5 102440 100
2006-04-28 08:11:42 51°10.265 2°38.903 -999 50 6.5 102440 100
2006-04-28 08:11:47 51°10.26 2°38.871 -999 51 6.5 102440 100
2006-04-28 08:11:52 51°10.255 2°38.84 -999 52 6.5 102430 100
2006-04-28 08:11:58 51°10.249 2°38.802 -999 51 6.5 102430 100
2006-04-28 08:12:02 51°10.245 2°38.777 -999 54 6.5 102430 100
2006-04-28 08:12:07 51°10.24 2°38.745 -999 55 6.5 102430 100
2006-04-28 08:12:12 51°10.235 2°38.713 -999 55 6.5 102440 100
2006-04-28 08:12:18 51°10.229 2°38.676 -999 58 6.5 102440 100
2006-04-28 08:12:22 51°10.224 2°38.651 -999 54 6.5 102440 100
2006-04-28 08:12:27 51°10.219 2°38.619 -999 58 6.5 102440 100
2006-04-28 08:12:32 51°10.214 2°38.588 -999 60 6.5 102440 100
2006-04-28 08:12:37 51°10.209 2°38.556 -999 62 6.5 102440 100
2006-04-28 08:12:42 51°10.204 2°38.524 -999 46 6.5 102440 100
2006-04-28 08:12:47 51°10.199 2°38.492 -999 45 6.5 102440 100
2006-04-28 08:12:52 51°10.194 2°38.461 -999 48 6.5 102440 100
2006-04-28 08:12:57 51°10.19 2°38.43 -999 56 6.5 102440 100
2006-04-28 08:13:01 51°10.185 2°38.405 -999 54 6.5 102440 100
2006-04-28 08:13:07 51°10.18 2°38.367 -999 67 6.5 102440 100
2006-04-28 08:13:12 51°10.174 2°38.335 -999 53 6.5 102440 100
2006-04-28 08:13:16 51°10.17 2°38.31 -999 46 6.5 102440 100
2006-04-28 08:13:22 51°10.164 2°38.272 -999 41 6.6 102440 100
2006-04-28 08:13:27 51°10.16 2°38.24 -999 43 6.6 102440 100
2006-04-28 08:13:32 51°10.155 2°38.209 -999 43 6.6 102440 100
2006-04-28 08:13:38 51°10.148 2°38.171 -999 52 6.6 102440 100
2006-04-28 08:13:42 51°10.145 2°38.145 -999 51 6.7 102440 100
2006-04-28 08:13:46 51°10.14 2°38.12 -999 55 6.7 102440 100
2006-04-28 08:13:51 51°10.135 2°38.088 -999 45 6.6 102440 100
2006-04-28 08:13:57 51°10.129 2°38.051 -999 56 6.6 102440 100
2006-04-28 08:14:02 51°10.124 2°38.019 -999 53 6.6 102440 100
2006-04-28 08:14:06 51°10.121 2°37.993 -999 62 6.6 102440 100
2006-04-28 08:14:12 51°10.115 2°37.955 -999 61 6.6 102440 100
2006-04-28 08:14:15 51°10.112 2°37.935 -999 55 6.6 102440 100
2006-04-28 08:14:22 51°10.105 2°37.891 -999 50 6.7 102440 100
2006-04-28 08:14:27 51°10.099 2°37.859 -999 38 6.7 102440 100
2006-04-28 08:14:32 51°10.094 2°37.828 -999 36 6.7 102440 100
2006-04-28 08:14:37 51°10.088 2°37.796 -999 40 6.7 102440 100
2006-04-28 08:14:42 51°10.083 2°37.764 -999 37 6.7 102440 100
2006-04-28 08:14:46 51°10.079 2°37.739 -999 39 6.7 102440 100
2006-04-28 08:14:51 51°10.074 2°37.706 -999 44 6.7 102440 100
2006-04-28 08:14:57 51°10.068 2°37.668 -999 48 6.7 102440 100
2006-04-28 08:15:01 51°10.064 2°37.643 -999 45 6.7 102440 100
2006-04-28 08:15:07 51°10.057 2°37.604 -999 41 6.7 102440 100
2006-04-28 08:15:12 51°10.052 2°37.573 -999 44 6.7 102450 100
2006-04-28 08:15:17 51°10.046 2°37.541 -999 43 6.7 102450 100
2006-04-28 08:15:21 51°10.042 2°37.515 -999 34 6.7 102440 100
2006-04-28 08:15:27 51°10.036 2°37.476 -999 38 6.7 102440 100
2006-04-28 08:15:32 51°10.031 2°37.444 -999 35 6.7 102450 100
2006-04-28 08:15:37 51°10.026 2°37.412 -999 33 6.7 102450 100
2006-04-28 08:15:42 51°10.021 2°37.38 -999 40 6.7 102450 100
2006-04-28 08:15:47 51°10.016 2°37.348 -999 45 6.7 102450 100
2006-04-28 08:15:52 51°10.011 2°37.316 -999 41 6.7 102450 100
2006-04-28 08:15:57 51°10.007 2°37.284 -999 38 6.7 102450 100
2006-04-28 08:16:01 51°10.004 2°37.259 -999 43 6.6 102440 100
2006-04-28 08:16:06 51°9.999 2°37.227 -999 38 6.6 102440 100
2006-04-28 08:16:11 51°9.995 2°37.195 -999 48 6.7 102450 100
2006-04-28 08:16:17 51°9.989 2°37.157 -999 52 6.7 102450 100
2006-04-28 08:16:21 51°9.985 2°37.132 -999 46 6.7 102450 100
2006-04-28 08:16:25 51°9.981 2°37.107 -999 45 6.7 102450 100
2006-04-28 08:16:31 51°9.975 2°37.068 -999 45 6.7 102450 100
2006-04-28 08:16:37 51°9.968 2°37.031 -999 57 6.7 102450 100
2006-04-28 08:16:41 51°9.964 2°37.006 -999 54 6.7 102460 100
2006-04-28 08:16:46 51°9.959 2°36.974 -999 51 6.7 102460 100
2006-04-28 08:16:51 51°9.956 2°36.941 -999 50 6.7 102460 100
2006-04-28 08:16:57 51°9.952 2°36.903 -999 50 6.7 102460 100
2006-04-28 08:17:02 51°9.951 2°36.871 -999 49 6.8 102450 100
2006-04-28 08:17:07 51°9.95 2°36.838 -999 51 6.8 102450 100
2006-04-28 08:17:11 51°9.949 2°36.812 -999 50 6.7 102450 100
2006-04-28 08:17:17 51°9.949 2°36.774 -999 49 6.7 102450 100
2006-04-28 08:17:21 51°9.949 2°36.748 -999 48 6.7 102450 100
2006-04-28 08:17:28 51°9.949 2°36.702 -999 44 6.7 102450 100
2006-04-28 08:17:32 51°9.949 2°36.677 -999 47 6.7 102450 100
2006-04-28 08:17:37 51°9.95 2°36.645 -999 47 6.7 102450 100
2006-04-28 08:17:42 51°9.95 2°36.612 -999 38 6.7 102450 100
2006-04-28 08:17:48 51°9.95 2°36.573 -999 39 6.7 102450 100
2006-04-28 08:17:52 51°9.95 2°36.548 -999 43 6.7 102440 100
2006-04-28 08:17:57 51°9.95 2°36.515 -999 37 6.7 102440 100
2006-04-28 08:18:01 51°9.951 2°36.489 -999 35 6.7 102450 100
2006-04-28 08:18:05 51°9.951 2°36.464 -999 36 6.7 102450 100
2006-04-28 08:18:12 51°9.951 2°36.419 -999 35 6.7 102450 100
2006-04-28 08:18:16 51°9.951 2°36.393 -999 41 6.7 102450 100
2006-04-28 08:18:22 51°9.952 2°36.355 -999 46 6.7 102450 100
2006-04-28 08:18:27 51°9.954 2°36.323 -999 51 6.7 102450 100
2006-04-28 08:18:32 51°9.956 2°36.292 -999 44 6.7 102450 100
2006-04-28 08:18:37 51°9.959 2°36.261 -999 43 6.7 102450 100
2006-04-28 08:18:41 51°9.961 2°36.236 -999 43 6.8 102450 100
2006-04-28 08:18:47 51°9.966 2°36.199 -999 43 6.8 102450 100
2006-04-28 08:18:52 51°9.969 2°36.169 -999 38 6.8 102450 100
2006-04-28 08:18:57 51°9.973 2°36.138 -999 38 6.8 102450 100
2006-04-28 08:19:01 51°9.976 2°36.114 -999 39 6.8 102450 100
2006-04-28 08:19:05 51°9.98 2°36.09 -999 41 6.8 102450 100
2006-04-28 08:19:12 51°9.985 2°36.048 -999 44 6.8 102450 100
2006-04-28 08:19:16 51°9.988 2°36.023 -999 42 6.8 102450 100
2006-04-28 08:19:22 51°9.993 2°35.987 -999 35 6.8 102450 100
2006-04-28 08:19:25 51°9.997 2°35.97 -999 39 6.8 102450 100
2006-04-28 08:19:32 51°10.006 2°35.93 -999 38 6.8 102450 100
2006-04-28 08:19:37 51°10.013 2°35.902 -999 33 6.8 102450 100
2006-04-28 08:19:42 51°10.021 2°35.874 -999 34 6.8 102450 100
2006-04-28 08:19:46 51°10.028 2°35.853 -999 31 6.8 102450 100
2006-04-28 08:19:52 51°10.039 2°35.822 -999 30 6.8 102450 100
2006-04-28 08:19:57 51°10.05 2°35.797 -999 26 6.8 102450 100
2006-04-28 08:20:01 51°10.059 2°35.779 -999 27 6.8 102450 100
2006-04-28 08:20:05 51°10.068 2°35.761 -999 22 6.8 102450 100
2006-04-28 08:20:11 51°10.083 2°35.735 -999 23 6.8 102440 100
2006-04-28 08:20:16 51°10.097 2°35.717 -999 18 6.8 102440 100
2006-04-28 08:20:22 51°10.114 2°35.696 -999 19 6.8 102450 100
2006-04-28 08:20:26 51°10.125 2°35.684 -999 17 6.8 102450 100
2006-04-28 08:20:32 51°10.143 2°35.668 -999 16 6.8 102440 100
2006-04-28 08:20:35 51°10.153 2°35.661 -999 16 6.8 102440 100
2006-04-28 08:20:42 51°10.175 2°35.649 -999 14 6.8 102460 100
2006-04-28 08:20:47 51°10.191 2°35.641 -999 10 6.8 102460 100
2006-04-28 08:20:52 51°10.208 2°35.635 -999 9 6.8 102450 100
2006-04-28 08:20:57 51°10.224 2°35.63 -999 12 6.8 102450 100
2006-04-28 08:21:02 51°10.241 2°35.625 -999 10 6.8 102460 100
2006-04-28 08:21:07 51°10.258 2°35.622 -999 11 6.8 102460 100
2006-04-28 08:21:12 51°10.275 2°35.62 -999 7 6.8 102450 100
2006-04-28 08:21:17 51°10.292 2°35.62 -999 6 6.8 102450 100
2006-04-28 08:21:21 51°10.305 2°35.621 -999 2 6.8 102450 100
2006-04-28 08:21:27 51°10.325 2°35.623 -999 1 6.8 102450 100
2006-04-28 08:21:32 51°10.341 2°35.626 -999 4 6.8 102450 100
2006-04-28 08:21:37 51°10.358 2°35.63 -999 5 6.8 102450 100
2006-04-28 08:21:42 51°10.374 2°35.636 -999 3 6.8 102460 100
2006-04-28 08:21:47 51°10.39 2°35.644 -999 359 6.8 102460 100
2006-04-28 08:21:50 51°10.398 2°35.65 -999 358 6.9 102450 100
2006-04-28 08:21:56 51°10.416 2°35.663 -999 358 6.9 102450 100
2006-04-28 08:22:02 51°10.433 2°35.677 -999 354 6.9 102440 100
2006-04-28 08:22:07 51°10.448 2°35.689 -999 1 6.9 102440 100
2006-04-28 08:22:12 51°10.461 2°35.702 -999 360 6.9 102440 100
2006-04-28 08:22:17 51°10.475 2°35.715 -999 359 6.9 102440 100
2006-04-28 08:22:22 51°10.489 2°35.729 -999 358 6.9 102440 100
2006-04-28 08:22:27 51°10.503 2°35.743 -999 358 6.9 102440 100
2006-04-28 08:22:32 51°10.516 2°35.756 -999 358 6.9 102440 100
2006-04-28 08:22:37 51°10.53 2°35.77 -999 354 6.9 102440 100
2006-04-28 08:22:42 51°10.544 2°35.784 -999 357 6.9 102450 100
2006-04-28 08:22:46 51°10.555 2°35.794 -999 352 6.9 102450 100
2006-04-28 08:22:52 51°10.571 2°35.81 -999 357 6.9 102450 100
2006-04-28 08:22:55 51°10.58 2°35.818 -999 353 6.9 102450 100
2006-04-28 08:23:02 51°10.599 2°35.837 -999 352 6.9 102440 100
2006-04-28 08:23:07 51°10.613 2°35.849 -999 353 6.9 102440 100
2006-04-28 08:23:12 51°10.627 2°35.862 -999 355 6.9 102440 100
2006-04-28 08:23:18 51°10.645 2°35.876 -999 353 6.9 102440 100
2006-04-28 08:23:21 51°10.653 2°35.883 -999 352 6.9 102440 100
2006-04-28 08:23:27 51°10.671 2°35.898 -999 351 6.9 102440 100
2006-04-28 08:23:31 51°10.682 2°35.907 -999 351 6.9 102430 100
2006-04-28 08:23:37 51°10.699 2°35.922 -999 349 6.9 102430 100
2006-04-28 08:23:41 51°10.71 2°35.933 -999 350 6.9 102420 99
2006-04-28 08:23:46 51°10.724 2°35.946 -999 350 6.9 102420 99
2006-04-28 08:23:51 51°10.738 2°35.96 -999 352 6.9 102430 99
2006-04-28 08:23:57 51°10.754 2°35.977 -999 351 6.9 102430 99
2006-04-28 08:24:02 51°10.768 2°35.992 -999 355 7 102430 99
2006-04-28 08:24:07 51°10.781 2°36.006 -999 352 7 102430 99
2006-04-28 08:24:12 51°10.795 2°36.019 -999 353 7 102430 99
2006-04-28 08:24:17 51°10.809 2°36.033 -999 352 7 102430 99
2006-04-28 08:24:22 51°10.823 2°36.046 -999 354 7 102430 99
2006-04-28 08:24:26 51°10.834 2°36.056 -999 358 7 102430 99
2006-04-28 08:24:32 51°10.851 2°36.071 -999 355 7 102430 99
2006-04-28 08:24:35 51°10.86 2°36.079 -999 353 7 102430 99
2006-04-28 08:24:42 51°10.88 2°36.097 -999 350 6.9 102430 99
2006-04-28 08:24:48 51°10.896 2°36.112 -999 354 6.9 102430 99
2006-04-28 08:24:52 51°10.908 2°36.123 -999 352 6.9 102430 99
2006-04-28 08:24:57 51°10.922 2°36.136 -999 354 6.9 102430 99
2006-04-28 08:25:02 51°10.935 2°36.15 -999 351 7 102430 99
2006-04-28 08:25:07 51°10.949 2°36.164 -999 354 7 102430 99
2006-04-28 08:25:12 51°10.963 2°36.178 -999 351 7 102440 99
2006-04-28 08:25:17 51°10.976 2°36.192 -999 355 7 102440 99
2006-04-28 08:25:22 51°10.99 2°36.206 -999 351 7 102430 99
2006-04-28 08:25:27 51°11.004 2°36.22 -999 353 7 102430 99
2006-04-28 08:25:32 51°11.017 2°36.234 -999 352 7 102440 99
2006-04-28 08:25:38 51°11.034 2°36.251 -999 352 7 102440 99
2006-04-28 08:25:41 51°11.042 2°36.258 -999 350 7 102440 99
2006-04-28 08:25:47 51°11.059 2°36.275 -999 352 7 102440 99
2006-04-28 08:25:52 51°11.073 2°36.288 -999 353 7 102430 99
2006-04-28 08:25:57 51°11.087 2°36.301 -999 353 7 102430 99
2006-04-28 08:26:01 51°11.098 2°36.311 -999 355 7 102430 99
2006-04-28 08:26:06 51°11.112 2°36.324 -999 356 7 102430 99
2006-04-28 08:26:11 51°11.127 2°36.336 -999 355 7 102430 99
2006-04-28 08:26:16 51°11.141 2°36.349 -999 354 7 102430 99
2006-04-28 08:26:22 51°11.158 2°36.364 -999 353 7 102430 99
2006-04-28 08:26:26 51°11.169 2°36.374 -999 356 7 102430 99
2006-04-28 08:26:32 51°11.186 2°36.39 -999 354 7 102430 99
2006-04-28 08:26:36 51°11.197 2°36.4 -999 353 7 102430 99
2006-04-28 08:26:42 51°11.214 2°36.417 -999 357 7 102440 99
2006-04-28 08:26:46 51°11.224 2°36.428 -999 357 7 102440 99
2006-04-28 08:26:52 51°11.241 2°36.444 -999 357 7 102440 99
2006-04-28 08:26:57 51°11.255 2°36.458 -999 358 7 102440 99
2006-04-28 08:27:01 51°11.265 2°36.469 -999 354 7 102430 99
2006-04-28 08:27:08 51°11.285 2°36.488 -999 350 7 102430 99
2006-04-28 08:27:12 51°11.295 2°36.499 -999 353 6.9 102440 99
2006-04-28 08:27:17 51°11.309 2°36.513 -999 356 6.9 102440 99
2006-04-28 08:27:22 51°11.323 2°36.527 -999 356 6.9 102440 99
2006-04-28 08:27:27 51°11.337 2°36.54 -999 352 6.9 102440 99
2006-04-28 08:27:33 51°11.354 2°36.556 -999 353 6.9 102440 99
2006-04-28 08:27:37 51°11.365 2°36.566 -999 355 6.9 102440 99
2006-04-28 08:27:42 51°11.379 2°36.579 -999 354 7 102440 99
2006-04-28 08:27:47 51°11.393 2°36.593 -999 352 7 102440 99
2006-04-28 08:27:52 51°11.407 2°36.605 -999 354 7 102440 99
2006-04-28 08:27:58 51°11.423 2°36.621 -999 348 7 102440 99
2006-04-28 08:28:02 51°11.435 2°36.632 -999 350 7 102430 99
2006-04-28 08:28:07 51°11.448 2°36.645 -999 351 7 102430 99
2006-04-28 08:28:12 51°11.462 2°36.659 -999 348 7 102430 99
2006-04-28 08:28:17 51°11.475 2°36.673 -999 348 7 102430 99
2006-04-28 08:28:21 51°11.486 2°36.684 -999 352 7 102440 99
2006-04-28 08:28:27 51°11.502 2°36.701 -999 356 7 102440 99
2006-04-28 08:28:32 51°11.516 2°36.714 -999 358 7 102440 99
2006-04-28 08:28:37 51°11.529 2°36.729 -999 360 7 102440 99
2006-04-28 08:28:42 51°11.543 2°36.742 -999 1 6.9 102430 99
2006-04-28 08:28:47 51°11.556 2°36.755 -999 358 6.9 102430 99
2006-04-28 08:28:52 51°11.57 2°36.768 -999 356 7 102440 99
2006-04-28 08:28:57 51°11.585 2°36.781 -999 355 7 102440 99
2006-04-28 08:29:01 51°11.596 2°36.791 -999 355 7 102450 99
2006-04-28 08:29:07 51°11.613 2°36.806 -999 355 7 102450 99
2006-04-28 08:29:12 51°11.627 2°36.819 -999 353 7 102450 99
2006-04-28 08:29:16 51°11.638 2°36.83 -999 355 7 102450 99
2006-04-28 08:29:22 51°11.654 2°36.846 -999 354 7 102440 99
2006-04-28 08:29:27 51°11.668 2°36.86 -999 354 7 102440 99
2006-04-28 08:29:33 51°11.684 2°36.877 -999 355 7 102440 99
2006-04-28 08:29:38 51°11.698 2°36.891 -999 353 7 102440 99
2006-04-28 08:29:42 51°11.708 2°36.902 -999 354 7 102440 99
2006-04-28 08:29:47 51°11.722 2°36.917 -999 355 7 102440 99
2006-04-28 08:29:52 51°11.736 2°36.93 -999 351 7 102440 99
2006-04-28 08:29:58 51°11.752 2°36.945 -999 353 7 102440 99
2006-04-28 08:30:02 51°11.763 2°36.956 -999 356 7 102440 99
2006-04-28 08:30:07 51°11.778 2°36.968 -999 2 7 102440 99
2006-04-28 08:30:12 51°11.793 2°36.979 -999 360 7 102440 98
2006-04-28 08:30:17 51°11.807 2°36.99 -999 1 7 102440 98
2006-04-28 08:30:22 51°11.822 2°37.002 -999 -999 7 102440 98
2006-04-28 08:30:27 51°11.836 2°37.014 -999 1 7 102440 98
2006-04-28 08:30:32 51°11.85 2°37.026 -999 2 7 102440 98
2006-04-28 08:30:36 51°11.862 2°37.036 -999 358 7 102440 98
2006-04-28 08:30:42 51°11.879 2°37.051 -999 354 7 102440 98
2006-04-28 08:30:46 51°11.89 2°37.061 -999 359 7 102440 98
2006-04-28 08:30:52 51°11.906 2°37.077 -999 360 7 102440 98
2006-04-28 08:30:55 51°11.915 2°37.085 -999 358 7 102440 98
2006-04-28 08:31:02 51°11.934 2°37.102 -999 359 7 102450 98
2006-04-28 08:31:07 51°11.949 2°37.115 -999 358 7 102450 98
2006-04-28 08:31:12 51°11.963 2°37.127 -999 357 7 102430 98
2006-04-28 08:31:17 51°11.977 2°37.139 -999 358 7 102430 98
2006-04-28 08:31:22 51°11.991 2°37.151 -999 357 6.9 102440 98
2006-04-28 08:31:27 51°12.006 2°37.163 -999 1 6.9 102440 98
2006-04-28 08:31:32 51°12.02 2°37.175 -999 1 7 102450 98
2006-04-28 08:31:37 51°12.035 2°37.187 -999 -999 7 102450 98
2006-04-28 08:31:42 51°12.049 2°37.199 -999 3 7 102450 98
2006-04-28 08:31:47 51°12.063 2°37.211 -999 1 7 102450 98
2006-04-28 08:31:52 51°12.077 2°37.224 -999 359 7 102450 98
2006-04-28 08:31:57 51°12.091 2°37.237 -999 357 7 102450 98
2006-04-28 08:32:01 51°12.103 2°37.247 -999 -999 7 102450 98
2006-04-28 08:32:06 51°12.117 2°37.26 -999 360 7 102450 98
2006-04-28 08:32:12 51°12.133 2°37.276 -999 1 7 102450 98
2006-04-28 08:32:17 51°12.147 2°37.289 -999 358 7 102450 98
2006-04-28 08:32:22 51°12.161 2°37.302 -999 1 7 102440 98
2006-04-28 08:32:27 51°12.175 2°37.315 -999 360 7 102440 98
2006-04-28 08:32:31 51°12.186 2°37.325 -999 2 7 102440 98
2006-04-28 08:32:37 51°12.203 2°37.34 -999 352 7 102440 98
2006-04-28 08:32:41 51°12.215 2°37.349 -999 356 7 102450 98
2006-04-28 08:32:48 51°12.235 2°37.366 -999 353 7 102450 98
2006-04-28 08:32:52 51°12.246 2°37.376 -999 352 7 102440 98
2006-04-28 08:32:58 51°12.263 2°37.39 -999 355 7 102440 98
2006-04-28 08:33:02 51°12.275 2°37.399 -999 358 7 102450 98
2006-04-28 08:33:05 51°12.284 2°37.406 -999 358 7 102450 98
2006-04-28 08:33:11 51°12.301 2°37.42 -999 356 7 102440 98
2006-04-28 08:33:17 51°12.318 2°37.435 -999 356 7 102440 98
2006-04-28 08:33:21 51°12.329 2°37.445 -999 355 7 102430 98
2006-04-28 08:33:27 51°12.346 2°37.46 -999 356 7 102430 98
2006-04-28 08:33:31 51°12.357 2°37.471 -999 -999 7 102430 98
2006-04-28 08:33:37 51°12.374 2°37.486 -999 2 7 102430 98
2006-04-28 08:33:41 51°12.385 2°37.496 -999 1 6.9 102440 98
2006-04-28 08:33:47 51°12.402 2°37.511 -999 360 6.9 102440 98
2006-04-28 08:33:51 51°12.413 2°37.521 -999 3 6.9 102440 98
2006-04-28 08:33:56 51°12.427 2°37.534 -999 1 6.9 102440 98
2006-04-28 08:34:02 51°12.444 2°37.548 -999 2 6.9 102450 98
2006-04-28 08:34:07 51°12.459 2°37.561 -999 359 6.9 102450 98
2006-04-28 08:34:12 51°12.473 2°37.573 -999 359 6.9 102440 98
2006-04-28 08:34:17 51°12.487 2°37.585 -999 359 6.9 102440 98
2006-04-28 08:34:21 51°12.499 2°37.594 -999 358 6.9 102440 98
2006-04-28 08:34:27 51°12.516 2°37.609 -999 357 6.9 102440 98
2006-04-28 08:34:32 51°12.53 2°37.622 -999 1 6.9 102440 98
2006-04-28 08:34:37 51°12.544 2°37.634 -999 1 6.9 102440 98
2006-04-28 08:34:41 51°12.555 2°37.644 -999 360 6.9 102440 97
2006-04-28 08:34:47 51°12.573 2°37.659 -999 359 6.9 102440 97
2006-04-28 08:34:51 51°12.584 2°37.669 -999 358 6.9 102440 97
2006-04-28 08:34:57 51°12.601 2°37.683 -999 3 6.9 102440 97
2006-04-28 08:35:01 51°12.612 2°37.693 -999 3 6.9 102450 97
2006-04-28 08:35:06 51°12.627 2°37.705 -999 359 6.9 102450 97
2006-04-28 08:35:11 51°12.641 2°37.717 -999 360 6.9 102450 97
2006-04-28 08:35:17 51°12.658 2°37.731 -999 355 6.9 102450 97
2006-04-28 08:35:22 51°12.672 2°37.743 -999 357 6.9 102440 97
2006-04-28 08:35:27 51°12.687 2°37.755 -999 356 6.9 102440 97
2006-04-28 08:35:32 51°12.701 2°37.767 -999 358 6.9 102450 97
2006-04-28 08:35:37 51°12.715 2°37.78 -999 356 6.9 102450 97
2006-04-28 08:35:42 51°12.729 2°37.792 -999 357 6.9 102450 97
2006-04-28 08:35:47 51°12.743 2°37.806 -999 357 6.9 102450 97
2006-04-28 08:35:52 51°12.757 2°37.818 -999 358 6.9 102440 97
2006-04-28 08:35:57 51°12.771 2°37.831 -999 355 6.9 102440 97
2006-04-28 08:36:02 51°12.786 2°37.843 -999 355 6.9 102440 97
2006-04-28 08:36:06 51°12.797 2°37.853 -999 356 6.9 102440 97
2006-04-28 08:36:11 51°12.811 2°37.865 -999 359 6.9 102440 97
2006-04-28 08:36:17 51°12.828 2°37.879 -999 358 6.9 102440 97
2006-04-28 08:36:21 51°12.84 2°37.888 -999 356 7 102450 97
2006-04-28 08:36:27 51°12.857 2°37.903 -999 357 7 102450 97
2006-04-28 08:36:31 51°12.868 2°37.913 -999 358 7 102440 97
2006-04-28 08:36:37 51°12.885 2°37.928 -999 359 7 102440 97
2006-04-28 08:36:41 51°12.897 2°37.938 -999 1 7 102440 97
2006-04-28 08:36:47 51°12.914 2°37.953 -999 354 7 102440 97
2006-04-28 08:36:52 51°12.928 2°37.965 -999 353 7 102450 97
2006-04-28 08:36:57 51°12.942 2°37.977 -999 351 7 102450 97
2006-04-28 08:37:01 51°12.954 2°37.987 -999 354 6.9 102440 97
2006-04-28 08:37:06 51°12.968 2°37.998 -999 350 6.9 102440 97
2006-04-28 08:37:11 51°12.983 2°38.01 -999 352 6.9 102450 97
2006-04-28 08:37:18 51°13.003 2°38.026 -999 355 6.9 102450 97
2006-04-28 08:37:22 51°13.015 2°38.036 -999 356 6.9 102440 97
2006-04-28 08:37:26 51°13.026 2°38.045 -999 353 6.9 102440 97
2006-04-28 08:37:32 51°13.044 2°38.059 -999 354 6.9 102430 97
2006-04-28 08:37:35 51°13.052 2°38.067 -999 353 6.9 102430 97
2006-04-28 08:37:42 51°13.073 2°38.085 -999 353 6.9 102440 97
2006-04-28 08:37:47 51°13.087 2°38.097 -999 359 6.9 102440 97
2006-04-28 08:37:52 51°13.101 2°38.11 -999 356 7 102440 97
2006-04-28 08:37:57 51°13.116 2°38.123 -999 359 7 102440 97
2006-04-28 08:38:01 51°13.127 2°38.133 -999 359 7 102440 97
2006-04-28 08:38:07 51°13.144 2°38.149 -999 -999 7 102440 97